TimeMST,TemperatureF,Dew PointF,Humidity,Sea Level PressureIn,VisibilityMPH,Wind Direction,Wind SpeedMPH,Gust SpeedMPH,PrecipitationIn,Events,Conditions,WindDirDegrees,DateUTC
12:57 AM,87.1,59.0,39,29.77,10.0,SSE,18.4,-,N/A,,Clear,160,2014-07-03 07:57:00
1:57 AM,86.0,66.9,53,29.77,10.0,SSE,20.7,-,N/A,,Clear,160,2014-07-03 08:57:00
2:57 AM,86.0,70.0,59,29.78,10.0,SSE,24.2,-,N/A,,Clear,150,2014-07-03 09:57:00
3:57 AM,86.0,68.0,55,29.78,10.0,SSE,18.4,-,N/A,,Clear,150,2014-07-03 10:57:00
4:57 AM,86.0,66.0,51,29.78,10.0,SSE,19.6,-,N/A,,Clear,150,2014-07-03 11:57:00
5:57 AM,86.0,64.9,49,29.81,10.0,ESE,10.4,-,N/A,,Clear,120,2014-07-03 12:57:00
6:57 AM,89.1,64.9,45,29.83,10.0,SE,16.1,-,N/A,,Clear,140,2014-07-03 13:57:00
7:57 AM,91.0,66.0,44,29.84,8.0,SSE,17.3,-,N/A,,Clear,150,2014-07-03 14:57:00
8:57 AM,93.9,66.9,41,29.84,7.0,SSE,21.9,-,N/A,,Clear,150,2014-07-03 15:57:00
9:57 AM,96.1,66.9,38,29.85,10.0,SSE,20.7,-,N/A,,Clear,160,2014-07-03 16:57:00
10:57 AM,99.0,66.0,34,29.85,10.0,South,17.3,23.0,N/A,,Clear,180,2014-07-03 17:57:00
11:57 AM,102.0,64.0,29,29.83,10.0,South,17.3,21.9,N/A,,Clear,190,2014-07-03 18:57:00
12:57 PM,102.9,63.0,27,29.82,10.0,South,12.7,-,N/A,,Clear,180,2014-07-03 19:57:00
1:57 PM,105.1,63.0,25,29.81,10.0,South,17.3,25.3,N/A,,Clear,170,2014-07-03 20:57:00
2:57 PM,106.0,61.0,23,29.78,10.0,South,16.1,-,N/A,,Clear,180,2014-07-03 21:57:00
3:57 PM,105.1,61.0,24,29.76,10.0,South,15.0,-,N/A,,Clear,190,2014-07-03 22:57:00
4:57 PM,104.0,60.1,24,29.74,10.0,South,16.1,-,N/A,,Clear,190,2014-07-03 23:57:00
5:57 PM,102.0,59.0,24,29.73,10.0,South,19.6,-,N/A,,Clear,190,2014-07-04 00:57:00
6:57 PM,99.0,61.0,28,29.75,10.0,South,13.8,-,N/A,,Clear,180,2014-07-04 01:57:00
7:57 PM,96.1,60.1,30,29.77,10.0,South,21.9,-,N/A,,Clear,170,2014-07-04 02:57:00
8:57 PM,93.9,59.0,31,29.81,10.0,South,18.4,-,N/A,,Clear,170,2014-07-04 03:57:00
9:57 PM,91.9,62.1,37,29.83,10.0,South,17.3,-,N/A,,Clear,170,2014-07-04 04:57:00
10:57 PM,89.1,68.0,50,29.84,10.0,South,17.3,-,N/A,,Clear,180,2014-07-04 05:57:00
11:57 PM,88.0,68.0,51,29.86,10.0,SSE,17.3,-,N/A,,Clear,160,2014-07-04 06:57:00